TimeCDT,TemperatureF,Dew PointF,Humidity,Sea Level PressureIn,VisibilityMPH,Wind Direction,Wind SpeedMPH,Gust SpeedMPH,PrecipitationIn,Events,Conditions,WindDirDegrees,DateUTC
12:56 AM,69.1,61.0,75,29.83,10.0,SE,5.8,-,N/A,,Clear,130,2013-05-19 05:56:00
1:56 AM,68.0,61.0,78,29.82,10.0,SSE,6.9,-,N/A,,Clear,150,2013-05-19 06:56:00
2:56 AM,64.9,60.1,84,29.85,9.0,Calm,Calm,-,N/A,,Clear,0,2013-05-19 07:56:00
3:56 AM,64.9,61.0,87,29.86,8.0,SSE,3.5,-,N/A,,Overcast,150,2013-05-19 08:56:00
4:56 AM,64.0,60.1,87,29.83,9.0,ESE,4.6,-,N/A,,Partly Cloudy,110,2013-05-19 09:56:00
5:56 AM,64.0,60.1,87,29.83,7.0,SE,5.8,-,N/A,,Partly Cloudy,130,2013-05-19 10:56:00
7:56 AM,66.0,60.1,81,29.83,7.0,SE,5.8,-,N/A,,Overcast,130,2013-05-19 12:56:00
8:15 AM,66.2,60.8,83,29.84,8.0,SE,9.2,-,N/A,Thunderstorm,Overcast,130,2013-05-19 13:15:00
8:56 AM,64.9,62.1,90,29.78,7.0,ESE,8.1,-,0.06,,Mostly Cloudy,110,2013-05-19 13:56:00
9:56 AM,68.0,63.0,84,29.74,8.0,SSE,13.8,21.9,N/A,,Clear,150,2013-05-19 14:56:00
10:56 AM,72.0,63.0,73,29.73,10.0,SE,9.2,-,N/A,,Clear,140,2013-05-19 15:56:00
11:56 AM,75.0,63.0,66,29.73,10.0,SSE,18.4,26.5,N/A,,Clear,150,2013-05-19 16:56:00
1:56 PM,82.0,61.0,49,29.70,10.0,SSW,16.1,23.0,N/A,,Clear,200,2013-05-19 18:56:00
2:56 PM,84.0,61.0,46,29.68,10.0,South,10.4,-,N/A,,Clear,190,2013-05-19 19:56:00
3:56 PM,81.0,62.1,52,29.68,10.0,SSE,18.4,24.2,N/A,,Partly Cloudy,160,2013-05-19 20:56:00
4:56 PM,79.0,63.0,58,29.67,10.0,SSE,3.5,-,N/A,,Overcast,160,2013-05-19 21:56:00
5:56 PM,79.0,62.1,56,29.67,10.0,SE,10.4,-,0.00,,Mostly Cloudy,140,2013-05-19 22:56:00
6:52 PM,71.6,57.2,60,29.67,10.0,Calm,Calm,-,0.00,Rain-Thunderstorm,Light Rain,0,2013-05-19 23:52:00
6:56 PM,70.0,57.9,65,29.68,9.0,SW,12.7,16.1,0.01,Rain-Thunderstorm,Light Rain,220,2013-05-19 23:56:00
7:07 PM,66.2,60.8,83,29.70,2.0,SSE,20.7,36.8,0.16,Rain-Thunderstorm,Heavy Thunderstorms and Rain,160,2013-05-20 00:07:00
7:14 PM,64.4,60.8,88,29.66,5.0,ESE,10.4,26.5,0.22,Rain-Thunderstorm,Heavy Thunderstorms and Rain,110,2013-05-20 00:14:00
7:42 PM,64.4,62.6,94,29.65,10.0,Calm,Calm,-,0.23,,Partly Cloudy,0,2013-05-20 00:42:00
7:56 PM,64.0,62.1,93,29.66,10.0,South,3.5,-,0.23,,Clear,190,2013-05-20 00:56:00
8:48 PM,62.6,60.8,94,29.69,10.0,South,16.1,21.9,N/A,Thunderstorm,Thunderstorm,180,2013-05-20 01:48:00
8:56 PM,63.0,60.1,90,29.67,2.5,SSE,12.7,25.3,0.21,Rain-Thunderstorm,Heavy Thunderstorms and Rain,150,2013-05-20 01:56:00
9:27 PM,64.4,60.8,88,29.65,10.0,SE,9.2,-,0.09,Rain,Light Rain,130,2013-05-20 02:27:00
9:39 PM,62.6,62.6,100,29.65,8.0,ESE,9.2,-,0.11,Rain-Thunderstorm,Rain,120,2013-05-20 02:39:00
9:56 PM,63.0,61.0,93,29.62,10.0,East,9.2,-,0.13,Rain-Thunderstorm,Light Rain,90,2013-05-20 02:56:00
10:05 PM,64.4,60.8,88,29.63,9.0,ESE,8.1,-,0.01,Rain,Light Rain,110,2013-05-20 03:05:00
10:56 PM,63.0,62.1,97,29.64,4.0,East,11.5,-,0.31,Rain,Heavy Rain,100,2013-05-20 03:56:00
11:32 PM,62.6,62.6,100,29.63,5.0,NW,3.5,-,0.15,Rain-Thunderstorm,Rain,310,2013-05-20 04:32:00
11:56 PM,63.0,62.1,97,29.66,4.0,SSW,8.1,-,0.28,Rain,Rain,210,2013-05-20 04:56:00